Regional Weather Roundup
Issued by NWS Glasgow, MT

Current Version | Previous Version | Text Only | Print | Product List | Glossary On
Versions: 1 2 3 4 5 6 7 8 9 10 11 12 13 14 15 16 17 18 19 20 21 22 23 24 25 26 27 28 29 30 31 32 33 34 35 36 37 38 39 40 41 42 43 44 45 46 47 48 49 50
000
ASUS45 KGGW 161315
RWRGGW
HOURLY REGIONAL WEATHER ROUNDUP FOR NORTHEAST MONTANA
NATIONAL WEATHER SERVICE GLASGOW MONTANA
700 AM MDT WED AUG 16 2017

NOTE: "FAIR" INDICATES FEW OR NO CLOUDS BELOW 12,000 FEET WITH NO
SIGNIFICANT WEATHER AND/OR OBSTRUCTIONS TO VISISBILITY.

NORTHEAST MONTANA


CITY           SKY/WX    TMP DP  RH WIND       PRES   REMARKS
GLASGOW        CLEAR     55  45  68 E9        29.93R
PLENTYWOOD       N/A     50  47  89 W2          N/A
WOLF POINT     CLEAR     50  47  89 CALM      29.95R
JORDAN           N/A     48  35  60 NW3       29.95R
SIDNEY         FOG       54  54 100 CALM      29.96R VSB 3/4
GLENDIVE       CLEAR     56  55  97 SE3       29.97S
MALTA            N/A     52  42  69 NE1         N/A
SCOBEY           N/A     42  37  82 CALM      29.95S

FORT PECK REPORTS


CITY           SKY/WX    TMP DP  RH WIND       PRES   REMARKS
FORT PECK        N/A     60  57  89 E5          N/A
THE PINES        N/A     60  56  86 S2          N/A

SOUTHEAST MONTANA


CITY           SKY/WX    TMP DP  RH WIND       PRES   REMARKS
BILLINGS       PTCLDY    59  44  57 SW14      29.99R
MILES CITY     CLEAR     54  44  69 SE8       29.96S
BAKER          PTCLDY    50  49  96 CALM      29.99S
LIVINGSTON     CLEAR     45  35  68 NW7       30.04S

CENTRAL MONTANA


CITY           SKY/WX    TMP DP  RH WIND       PRES   REMARKS
HAVRE          CLEAR     44  36  73 SW7       29.93R
LEWISTOWN      CLEAR     48  40  73 SE3       29.99R
GREAT FALLS    CLEAR     48  28  46 SW8       29.98R
CUT BANK       CLEAR     47  35  63 NW3       29.97S
HELENA         CLEAR     53  34  48 NW3       30.03R
BUTTE          CLEAR     40  29  64 SE3       30.12R
BOZEMAN        CLEAR     46  39  76 SE6       30.06R

WESTERN MONTANA


CITY           SKY/WX    TMP DP  RH WIND       PRES   REMARKS
MISSOULA       CLEAR     45  35  68 CALM      30.05R
KALISPELL      NOT AVBL

NORTH DAKOTA


CITY           SKY/WX    TMP DP  RH WIND       PRES   REMARKS
WILLISTON      CLOUDY    56  55  97 CALM      29.95S
DICKINSON      FOG       54  54 100 NW8       29.94S VSB<1/4
MINOT          FOG       60  59  96 W3        29.92R VSB 1/4
BISMARCK       CLOUDY    61  59  93 N12       29.91R

SOUTHERN SASKATCHEWAN


CITY           SKY/WX    TMP DP  RH WIND       PRES   REMARKS
REGINA         PTCLDY    50  46  87 S6        29.93S
MOOSE JAW      PTCLDY    57  48  72 SW9       29.94R
ESTEVAN        MOSUNNY   50  50 100 W3        29.94S FOG
SWIFT CURRENT  CLOUDY    52  43  71 SW8       29.95R




USA.gov is the U.S. government's official web portal to all federal, state and local government web resources and services.